Location: Bremen
(53.0830°N, 8.8000°E)
Time: 10:59:51
(UTC+01:00)

Envisat - Pass Details

Date: 08 October 2022
Orbit: 763 x 765 km, 98.2° (Epoch: 01 December)

Event Time Altitude Azimuth Distance (km) Brightness Sun altitude
Rises 04:30:02 0° 25° (NNE) 3,247 7.1 -28.0°
Reaches altitude 10° 04:33:06 10° 44° (NE) 2,315 6.4 -27.7°
Maximum altitude 04:36:33 18° 87° (E) 1,814 5.6 -27.2°
Drops below altitude 10° 04:39:59 10° 130° (SE) 2,302 5.7 -26.8°
Sets 04:43:00 0° 149° (SSE) 3,222 6.3 -26.4°
